Regional Weather Roundup
Issued by NWS

Home | Current Version | Previous Version | Graphics & Text | Print | Product List | Glossary On
Versions: 1 2 3 4 5 6 7 8 9 10 11 12 13 14 15 16 17 18 19 20 21 22 23 24 25 26 27 28 29 30 31 32 33 34 35 36 37 38 39 40 41 42 43 44 45 46 47 48 49 50
000
ASUS43 KMPX 220801
RWRMN
WEATHER ROUNDUP FOR MINNESOTA
NATIONAL WEATHER SERVICE TWIN CITIES/CHANHASSEN MN
300 AM CDT SUN APR 22 2018


NOTE: "FAIR" INDICATES FEW OR NO CLOUDS BELOW 12,000 FEET WITH NO
SIGNIFICANT WEATHER AND/OR OBSTRUCTIONS TO VISIBILITY. N/A MEANS
CURRENT SKY AND/OR WEATHER CONDITIONS ARE NOT AVAILABLE.

MNZ060>063-068>070-220900-
   Twin Cities Metro

CITY           SKY/WX    TMP DP  RH WIND       PRES   REMARKS
TWIN CITIES    FAIR      39  33  79 CALM      30.33F
ST PAUL        FAIR      38  34  85 CALM      30.34F
CRYSTAL        FAIR      34  25  69 CALM      30.32F
BLAINE         FAIR      36  27  69 CALM      30.33F
LAKEVILLE      FAIR      34  34 100 CALM      30.33S
EDEN PRAIRIE   FAIR      37  28  70 CALM      30.32F
SOUTH ST PAUL  FAIR      37  31  79 CALM      30.33F
LAKE ELMO      FAIR      34  32  93 CALM      30.35F
$$
MNZ001>005-007-008-013>017-022>024-027-028-220900-
   Northwest Minnesota

CITY           SKY/WX    TMP DP  RH WIND       PRES   REMARKS
BEMIDJI        FAIR      39  30  69 S3        30.28R
HALLOCK        FAIR      43  39  87 S13       30.20S
ROSEAU         FAIR      43  37  81 S10       30.23F
WARROAD        FAIR      39  36  87 S8        30.23F
THIEF RVR FALL FAIR      42  36  79 S13       30.26S
CROOKSTON      FAIR      43  37  81 S13       30.26S
FOSSTON        FAIR      34  30  86 S8        30.28S WCI  27
DETROIT LAKES  FAIR      37  34  87 S5        30.30F
MOORHEAD       FAIR      37  34  87 SE7       30.29S
PARK RAPIDS    FAIR      36  29  75 CALM      30.29S
MAHNOMEN       FAIR      36  32  85 S8        30.28S
$$
MNZ006-009>011-018-025>026-220900-
   North Central Minnesota

CITY           SKY/WX    TMP DP  RH WIND       PRES   REMARKS
BAUDETTE       FAIR      38  28  67 S3        30.25S
FLAG ISLAND    FAIR      36  30  80 SE8       30.22F
INTL FALLS     FAIR      38  24  57 CALM      30.27S
WASKISH        FAIR      43  28  56 S3        30.27S
BIG FORK       FAIR      30  21  69 CALM      30.29S
LONGVILLE      FAIR      27  25  93 CALM      30.31R
GRAND RAPIDS   FAIR      30  22  72 SE3       30.32S
CRANE LAKE     FAIR      25  21  86 CALM      30.32S
ORR            FAIR      37  16  41 CALM      30.27F
COOK           FAIR      28  23  80 CALM      30.30F
WALKER         FAIR      40  30  68 SW5       30.29R
$$
MNZ012-019>021-037-220900-
   Northeast Minnesota

CITY           SKY/WX    TMP DP  RH WIND       PRES   REMARKS
DULUTH         FAIR      37  18  46 CALM      30.31F
ELY            FAIR      27  19  74 CALM      30.31F
HIBBING        FAIR      25  21  85 CALM      30.30F
EVELETH        FAIR      26  22  85 CALM      30.32F
DULUTH HARBOR  FAIR      34  28  80 CALM      30.34F
TWO HARBORS    FAIR      28  23  80 CALM      30.31S
SILVER BAY     FAIR      27  21  80 CALM      30.31F
GRAND MARAIS     N/A     30  23  75 NE3       30.35S
G MARAIS ARPRT FAIR      25  18  74 CALM      30.33F
$$
MNZ029>031-032-039>041-046>048-054>057-064-220900-
   West Central Minnesota

CITY           SKY/WX    TMP DP  RH WIND       PRES   REMARKS
FERGUS FALLS   FAIR      37  34  87 SE6       30.29S
WHEATON        CLEAR     37  32  81 S6        30.31F
MORRIS         CLEAR     36  34  93 SE6       30.29S
ALEXANDRIA     FAIR      37  32  82 CALM      30.31F
ELBOW LAKE     FAIR      36  32  84 E5        30.30F
WADENA         FAIR      37  30  75 SW3       30.30S
GLENWOOD       FAIR      37  36  93 CALM      30.31F
APPLETON       CLEAR     34  30  86 SE3       30.30F
BENSON         CLEAR     32  30  93 S3        30.32F FOG
ORTONVILLE     CLEAR     34  30  86 SE5       30.29F WCI  30
MADISON        CLEAR     37  34  87 CALM      30.30F
WILLMAR        FAIR      36  34  93 CALM      30.34F
$$
MNZ033>034-036-042>043-049>051-058-059-220900-
   Central Minnesota

CITY           SKY/WX    TMP DP  RH WIND       PRES   REMARKS
ST CLOUD       FAIR      31  28  89 CALM      30.32F
SAUK CENTRE    FAIR      33  32  96 CALM      30.31F
PAYNESVILLE    FAIR      32  31  97 CALM      30.32F
AITKIN         FAIR      25  21  86 CALM      30.30S
PINE RIVER     FAIR      28  25  86 CALM      30.33S
BRAINERD       FAIR      29  24  82 CALM      30.31S
STAPLES        FAIR      36  28  75 CALM      30.30F
LONG PRAIRIE   FAIR      32  30  93 CALM      30.31F
LITTLE FALLS   FAIR      32  27  80 CALM      30.31F
LITCHFIELD     FAIR      36  32  87 CALM      30.32F
BUFFALO        FAIR      33  29  86 CALM      30.34S
MAPLE LAKE     FAIR      31  30  94 CALM      30.34S
HUTCHINSON     FAIR      34  33  95 CALM      30.34S
$$
MNZ037-044-045-052-053-220900-
   East Central Minnesota

CITY           SKY/WX    TMP DP  RH WIND       PRES   REMARKS
PRINCETON      FAIR      28  27  93 CALM      30.33S
MORA           FAIR      28  23  80 CALM      30.34F
CAMBRIDGE      FAIR      32  21  64 CALM      30.33F
RUSH CITY      FAIR      30  24  79 CALM      30.33S
MOOSE LAKE     FAIR      28  21  74 CALM      30.31S
HINCKLEY       FAIR      28  27  93 CALM      30.33S
CLOQUET        FAIR      28  19  69 CALM      30.32S
MCGREGOR       FAIR      28  23  80 CALM      30.32S
$$
MNZ071>073-080-081-089-090-097-098-220900-
   Southwest Minnesota

CITY           SKY/WX    TMP DP  RH WIND       PRES   REMARKS
MONTEVIDEO     CLEAR     36  32  87 CALM      30.30F
GRANITE FALLS  CLEAR     37  34  89 CALM      30.32F
CANBY          CLEAR     34  32  94 S3        30.30F
MARSHALL       CLEAR     33  29  85 CALM      30.31F
REDWOOD FALLS  CLEAR     36  33  89 CALM      30.31F
OLIVIA         CLEAR     36  34  93 CALM      30.31F
PIPESTONE      CLOUDY   N/A N/A N/A SE7       30.28S
WINDOM         MOCLDY    36  19  51 E5        30.30F
WORTHINGTON    CLOUDY    34  32  92 CALM      30.29F
JACKSON        MOCLDY    36  32  87 E8        30.30F
TRACY          CLOUDY    36  31  83 S3        30.29F
SLAYTON        CLOUDY    37  32  80 S5        30.30F
$$
MNZ065>067-074>077-082>085-091>093-220900-
   South Central Minnesota

CITY           SKY/WX    TMP DP  RH WIND       PRES   REMARKS
MANKATO        MOCLDY    40  34  79 CALM      30.32F
NEW ULM        CLEAR     36  30  80 CALM      30.32S
ST JAMES       CLOUDY    34  32  93 CALM      30.32F
FAIRMONT       CLOUDY    37  31  78 CALM      30.31F
GLENCOE        FAIR      34  34 100 CALM      30.32S
OWATONNA       FAIR      36  32  87 CALM      30.32F
WASECA         CLOUDY    37  34  87 E5        30.33S
ALBERT LEA     FAIR      37  30  75 CALM      30.31F
$$
MNZ078>079-086>088-094>096-220900-
   Southeast Minnesota

CITY           SKY/WX    TMP DP  RH WIND       PRES   REMARKS
ROCHESTER      MOCLDY    41  32  70 E3        30.32F
RED WING       FAIR      32  27  80 CALM      30.33F
STANTON        FAIR      33  31  92 CALM      30.32F
DODGE CENTER   FAIR      37  32  81 SE5       30.32F
WINONA         FAIR      34  32  93 CALM      30.32F
AUSTIN         FAIR      37  30  75 CALM      30.31F
PRESTON        CLOUDY    40  31  70 CALM      30.33F
$$
ABBREVIATIONS USED IN REMARKS
   TC - TEMPERATURES IN CELSIUS
  WCI - WIND CHILL INDEX
   HX - HEAT INDEX
  VSB - VISIBILITY
$$




USA.gov is the U.S. government's official web portal to all federal, state and local government web resources and services.